Find Starlink 36049

NORAD ID: 66805 Int'l Des: 2025-278 Owner: SPXS Country: US Constellation: starlink operational
LEOCIRCULAR

現在のビュー

3D地球を読み込み中...

Starlink 36049について

説明を読み込み中...

次回通過

Passes for default location (London). Set your location on the main map for personalized predictions.

高度履歴

Loading altitude history...

軌道要素

1 66805U 25278Q 26145.96293123 .00018750 00000-0 68882-3 0 9998
2 66805 43.0053 38.2598 0001439 214.9354 145.1403 15.27596458 27023
Epoch: May 25, 2026 • Age: 18 hours

現在のステータス

高度 481.8 km
速度 7.63 km/s
衛星直下点 1.07°N, 71.35°E
打ち上げ日 Dec 1, 2025
運用期間 0.4 years
タイプ internet

技術仕様

分類 Payload
質量 575.00 kg
乾燥質量 530.00 kg
総質量 575.00 kg
長さ 0.30 m
直径 4.10 m
スパン 29.00 m
形状 Box + pan
製造者 SPXS
バスタイプ Starlink V2MO
フェーズステータス In Orbit
所有者/国 SPXS/US

Most Searched